Regional Weather Roundup
Issued by NWS New Orleans/Baton Rouge, LA

Home | Current Version | Previous Version | Text Only | Print | Product List | Glossary On
Versions: 1 2 3 4 5 6 7 8 9 10 11 12 13 14 15 16 17 18 19 20 21 22 23 24 25 26 27 28 29 30 31 32 33 34 35 36 37 38 39 40 41 42 43 44 45 46 47 48 49 50
000
ASUS44 KLIX 190510
RWRLIX
NEW ORLEANS REGIONAL WEATHER ROUNDUP
NATIONAL WEATHER SERVICE NEW ORLEANS LA
1200 AM CDT SAT APR 19 2014

NOTE: "FAIR" INDICATES FEW OR NO CLOUDS BELOW 12,000 FEET WITH NO
      SIGNIFICANT WEATHER AND/OR OBSTRUCTIONS TO VISIBILITY.
      SKY/WX - SKY CONDITION AND SIGNIFICANT WEATHER.
      TMP - AIR TEMPERATURE.     DP    - DEWPOINT TEMPERATURE.
      RH  - RELATIVE HUMIDITY.   PRES  - PRESSURE.
      HI  - HEAT INDEX.          WCI   - WIND CHILL INDEX.

*  THESE STATIONS ARE NOT NWS OR FAA STATIONS AND ARE NOT UNDER
   NWS QUALITY CONTROL.

LAZ038-040-048-061>063-065>067-069-190600-
SOUTHEAST LOUISIANA

CITY           SKY/WX    TMP DP  RH WIND       PRES   REMARKS
N.O. AUDUBON     N/A     62  56  82 MISG        N/A
N.O. INTL ARPT PTCLDY    61  55  81 N9        30.15R
N.O. LAKEFRONT CLEAR     62  56  80 NE17      30.16R
N.O. DOWNTOWN*   N/A     63  52  67 N6        30.15S
SLIDELL        CLEAR     57  53  86 CALM      30.15R
BATON ROUGE    CLEAR     59  55  87 NE7       30.15F
BOOTHVILLE     PTCLDY    61  55  81 NE13G18   30.12R
BELLE CHASSE   CLEAR     60  54  80 NE6       30.14R
BOGALUSA*        N/A     57  53  86 N3        30.18R
GALLIANO*      CLEAR     62  56  82 N6        30.13F
NEW ROADS*       N/A     60  60  97 NE7       30.15F
GONZALES*        N/A     61  57  88 CALM      30.15S
HAMMOND*       CLEAR     59  54  82 CALM      30.18R
HOUMA*           N/A     59  54  83 N3        30.14S
PORT FOURCHON* CLEAR     63  57  82 N12       30.15R

$$

MSZ070-080>082-190600-
SOUTHERN MISSISSIPPI

CITY           SKY/WX    TMP DP  RH WIND       PRES   REMARKS
MCCOMB         CLEAR     55  52  89 CALM      30.19R
GULFPORT       CLOUDY    61  52  72 NW8       30.13R
BILOXI         CLOUDY    59  54  81 N9        30.13R
PASCAGOULA     CLOUDY    59  54  83 NW5       30.11R

$$

COASTAL OBSERVATIONS
LAKE AND NEARSHORE STATIONS

STATION/POSITION TIME  TEMP    WIND        PRES    WAVE
                       AIR SEA DIR/SP/G            HT/PER
                 (UTC) (F)     (DEG/KT/KT) (MB)    (FT/S)
PASCAGOULA       0500   59      10/ 10/ 13 1018.8
WAVELAND YACHT   0500   59 67   10/ 11/ 12 1019.6
GRAND ISLE       0500   63 68   40/ 13/ 16 1020.3
SOUTHWEST PASS   0500   64 58   30/ 15/ 17 1019.7
NEW CANAL        0500   63 65   40/ 14/ 16 1021.1
SHELL BEACH      0500   62 63   20/ 15/ 19 1020.3

OFFSHORE STATIONS

STATION/POSITION TIME  TEMP    WIND        PRES    WAVE
                       AIR SEA DIR/SP/G            HT/PER
                 (UTC) (F)     (DEG/KT/KT) (MB)    (FT/S)
64 S DAUPHIN ISL 0402   63 71   10/ 21/ 27 1018.4

$$




USA.gov is the U.S. government's official web portal to all federal, state and local government web resources and services.